This is the latest recevied weather packets stored in our database for station/object SP2FH-13. If no packets are shown the sender has not sent any weather packets the latest 10 day(s).
| Time | Temp. | Humidity | Pressure | Rain* | Wind** | Luminosity | Snow |
|---|---|---|---|---|---|---|---|
| 1778414282 | 19.44° C | 36% | 1004.2 hPa | - | - | 722 W/m² | - |
| 1778413981 | 18.89° C | 40% | 1004.2 hPa | - | - | 731 W/m² | - |
| 1778413680 | 18.33° C | 35% | 1004.3 hPa | - | - | 736 W/m² | - |
| 1778413379 | 18.33° C | 37% | 1004.4 hPa | - | - | 738 W/m² | - |
| 1778413078 | 17.78° C | 36% | 1004.5 hPa | - | - | 744 W/m² | - |
| 1778412776 | 18.33° C | 38% | 1004.6 hPa | - | - | 750 W/m² | - |
| 1778412475 | 18.33° C | 34% | 1004.6 hPa | - | - | 755 W/m² | - |
| 1778412173 | 17.78° C | 37% | 1004.7 hPa | - | - | 754 W/m² | - |
| 1778411872 | 17.22° C | 36% | 1004.8 hPa | - | - | 753 W/m² | - |
| 1778411571 | 17.78° C | 40% | 1004.8 hPa | - | - | 752 W/m² | - |
| 1778411270 | 17.22° C | 36% | 1004.7 hPa | - | - | 758 W/m² | - |
| 1778410969 | 16.67° C | 39% | 1004.8 hPa | - | - | 755 W/m² | - |
| 1778410667 | 16.67° C | 36% | 1004.9 hPa | - | - | 748 W/m² | - |
| 1778410367 | 17.22° C | 41% | 1004.9 hPa | - | - | 747 W/m² | - |
| 1778410065 | 16.67° C | 36% | 1004.9 hPa | - | - | 745 W/m² | - |
| 1778409764 | 17.22° C | 38% | 1005 hPa | - | - | 749 W/m² | - |
| 1778409463 | 18.33° C | 35% | 1005 hPa | - | - | 756 W/m² | - |
| 1778409163 | 17.78° C | 38% | 1005.1 hPa | - | - | 758 W/m² | - |
| 1778408862 | 17.78° C | 37% | 1005.3 hPa | - | - | 758 W/m² | - |
| 1778408560 | 17.78° C | 36% | 1005.3 hPa | - | - | 752 W/m² | - |
| 1778408259 | 17.22° C | 39% | 1005.3 hPa | - | - | 752 W/m² | - |
| 1778407958 | 17.78° C | 38% | 1005.4 hPa | - | - | 751 W/m² | - |
| 1778407656 | 16.67° C | 39% | 1005.5 hPa | - | - | 749 W/m² | - |
| 1778407355 | 16.11° C | 42% | 1005.5 hPa | - | - | 745 W/m² | - |
| 1778407055 | 16.67° C | 39% | 1005.6 hPa | - | - | 741 W/m² | - |
* Rain since midnight (hover to see other rain measurements)
** Current wind speed in m/s (hover to see current wind gust speed)